OK2VOP-6 Weather Reports


time (UTC)temp
C
wind
direction
speed
KPH
gust
KPH
rain 1hr
cm
rain 24hr
cm
rain mn
cm
humidity
%
barometer
mb
20260507232603 13 0.0 0.0 0.00 0.00 0.33 100
20260507230558 13 0.0 0.0 0.00 0.00 0.33 100
20260507224553 13 0.0 0.0 0.00 0.00 0.33 100
20260507222549 14 0.0 0.0 0.00 0.00 0.33 100
20260507220543 14 0.0 0.0 0.00 0.00 0.33 100
20260507214539 13 0.0 0.0 0.00 0.00 0.33 100
20260507212534 12 0.0 0.0 0.00 0.00 0.33 100
20260507210529 12 0.0 0.0 0.00 0.00 0.33 100
20260507204524 12 0.0 0.0 0.00 0.00 0.33 100
20260507202519 12 0.0 0.0 0.00 0.00 0.33 100
20260507200515 13 0.0 0.0 0.00 0.00 0.33 100
20260507194510 13 0.0 0.0 0.03 0.00 0.33 100
20260507192505 13 0.0 0.0 0.10 0.00 0.33 100
20260507190500 13 0.0 0.0 0.15 0.00 0.33 100
20260507184455 14 0.0 0.0 0.10 0.00 0.30 100
20260507182450 14 0.0 0.0 0.20 0.00 0.23 100
20260507180446 14 0.0 0.0 0.20 0.00 0.20 100
20260507174441 15 0.0 0.0 0.20 0.00 0.20 100
20260507172436 16 0.0 0.0 0.03 0.00 0.03 100
20260507170431 17 0.0 0.0 0.00 0.00 0.00 100
20260507164426 18 0.0 0.0 0.00 0.00 0.00 100
20260507162422 20 0.0 0.0 0.00 0.00 0.00 100
20260507160417 20 0.0 0.0 0.00 0.00 0.00 100
20260507154412 22 0.0 0.0 0.00 0.00 0.00 100
20260507152407 22 0.0 0.0 0.00 0.00 0.00 100
20260507150403 22 0.0 0.0 0.00 0.00 0.00 100
20260507144358 25 0.0 0.0 0.00 0.00 0.00 100
20260507142353 25 0.0 0.0 0.00 0.00 0.00 100
20260507140348 24 0.0 0.0 0.00 0.00 0.00 100
20260507134343 23 0.0 0.0 0.00 0.00 0.00 100
20260507132339 23 0.0 0.0 0.00 0.00 0.00 100
20260507130334 23 0.0 0.0 0.00 0.00 0.00 100
20260507122324 22 0.0 0.0 0.00 0.00 0.00 100
20260507120319 21 0.0 0.0 0.00 0.00 0.00 100
20260507114314 20 0.0 0.0 0.00 0.00 0.00 100
20260507112309 20 0.0 0.0 0.00 0.00 0.00 100
20260507110304 20 0.0 0.0 0.00 0.00 0.00 100
20260507104259 20 0.0 0.0 0.00 0.00 0.00 100
20260507102254 19 0.0 0.0 0.00 0.00 0.00 100
20260507100249 20 0.0 0.0 0.00 0.00 0.00 100
20260507094245 19 0.0 0.0 0.00 0.00 0.00 100
20260507092240 20 0.0 0.0 0.00 0.00 0.00 100
20260507090235 18 0.0 0.0 0.00 0.00 0.00 100
20260507084230 18 0.0 0.0 0.00 0.00 0.00 100
20260507082226 18 0.0 0.0 0.00 0.00 0.00 100
20260507080221 17 0.0 0.0 0.00 0.00 0.00 100
20260507074216 17 0.0 0.0 0.00 0.00 0.00 100
20260507072211 16 0.0 0.0 0.00 0.00 0.00 100
20260507070206 16 0.0 0.0 0.00 0.00 0.00 100
20260507064201 16 0.0 0.0 0.00 0.00 0.00 100
20260507062156 16 0.0 0.0 0.00 0.00 0.00 100
20260507060150 15 0.0 0.0 0.00 0.00 0.00 100
20260507054146 15 0.0 0.0 0.00 0.00 0.00 100
20260507052141 15 0.0 0.0 0.00 0.00 0.00 100
20260507050415 14 0.0 0.0 0.00 0.00 0.00 100
20260507050142 14 0.0 0.0 0.00 0.00 0.00 100
20260507044131 13 0.0 0.0 0.00 0.00 0.00 100
20260507042215 13 0.0 0.0 0.00 0.00 0.00 100
20260507042126 13 0.0 0.0 0.00 0.00 0.00 100
20260507040122 13 0.0 0.0 0.00 0.00 0.00 100
20260507034117 13 0.0 0.0 0.00 0.00 0.00 100
20260507032112 13 0.0 0.0 0.00 0.00 0.00 100
20260507030107 13 0.0 0.0 0.00 0.00 0.00 100
20260507024102 13 0.0 0.0 0.00 0.00 0.00 100
20260507022057 13 0.0 0.0 0.00 0.00 0.00 100
20260507020053 14 0.0 0.0 0.00 0.00 0.00 100
20260507014048 14 0.0 0.0 0.00 0.00 0.00 100
20260507012043 14 0.0 0.0 0.00 0.00 0.00 100
20260507010038 15 0.0 0.0 0.00 0.00 0.00 100
20260507004033 15 0.0 0.0 0.00 0.00 0.00 100
20260507002028 15 0.0 0.0 0.00 0.00 0.00 100
20260507000024 16 0.0 0.0 0.00 0.00 0.00 100
20260506234019 16 0.0 0.0 0.00 0.00 0.00 100